Location: White Plains
(41.0340°N, 73.7629°W)
Time: 02:15:53
(UTC-05:00)

ISS - Visible Passes

Search period start: 17 February 2020 00:00
Search period end: 27 February 2020 00:00
Orbit: 416 x 423 km, 51.6° (Epoch: 17 February)

Date Brightness Start Highest point End Pass type
(mag) Time Alt. Az. Time Alt. Az. Time Alt. Az.
19 Feb -0.9 06:05:33 10° S 06:08:05 20° SE 06:10:37 10° E visible
20 Feb -0.6 05:19:27 10° SSE 05:20:40 12° SE 05:21:54 10° ESE visible
21 Feb -3.1 06:06:07 10° SW 06:09:26 59° SE 06:12:46 10° ENE visible
22 Feb -2.2 05:18:57 11° SSW 05:21:53 33° SE 05:24:59 10° ENE visible
23 Feb -1.5 04:33:57 19° SE 04:34:25 20° SE 04:36:56 10° E visible
23 Feb -3.4 06:07:42 10° WSW 06:10:58 49° NNW 06:14:17 10° NE visible
24 Feb -3.9 05:21:43 29° WSW 05:23:18 81° NW 05:26:42 10° NE visible
25 Feb -2.8 04:36:20 47° E 04:36:20 47° E 04:39:01 10° ENE visible
26 Feb -0.3 03:50:49 12° ENE 03:50:49 12° ENE 03:51:11 10° ENE visible
26 Feb -2.8 05:23:46 26° WNW 05:24:53 33° NNW 05:28:00 10° NE visible
